Temperature
19 19 19 19 18 17 19 19 19 19 19 19 19 19 18 18 18 17 17 18 18 18 18 18 18 18 18 18 18 17 17 17 18 18 17 17 17 17 17 17 17 17 17 17 17 18 18 18 18
20 19 19 19 17 18 19 19 20 20 20 20 19 19 18 17 17 18 17 18 18 18 17 18 18 18 18 18 17 17 17 17 17 17 17 17 17 17 17 17 17 17 17 17 17 17 17 17 17
19 19 19 17 18 18 19 20 19 20 20 20 19 18 18 18 18 18 18 18 18 18 18 18 18 18 18 17 17 17 17 17 17 17 17 17 17 17 16 17 17 17 17 17 17 17 17 17 17
19 19 19 17 19 19 19 19 20 20 20 20 19 18 18 18 18 18 18 18 18 18 18 18 17 17 17 17 17 17 17 17 17 17 16 16 16 16 16 16 16 16 16 16 17 17 17 17 17
20 20 17 18 19 19 19 20 20 20 19 19 19 18 18 18 18 18 18 18 18 18 18 17 17 17 17 17 17 17 17 16 16 16 16 16 16 16 16 16 16 16 16 16 16 16 16 17 17
20 18 17 18 19 19 19 20 20 19 19 19 19 18 18 18 18 18 18 18 18 18 17 17 17 17 17 17 16 16 16 16 16 16 16 16 16 16 16 16 16 16 16 16 16 16 16 16 16
19 17 18 18 18 19 20 20 20 19 19 19 19 18 18 18 18 18 18 18 18 18 17 17 17 17 17 16 16 16 16 16 16 16 16 16 16 16 16 15 15 15 15 16 16 16 16 16 16
19 16 18 18 18 19 20 20 20 20 19 20 19 18 18 18 18 18 18 18 18 17 17 17 17 17 17 16 16 16 16 16 16 16 16 16 15 15 15 15 15 15 15 15 15 16 16 16 16
19 16 17 18 19 19 20 20 20 20 20 19 19 19 19 19 18 18 18 18 18 18 17 17 17 17 17 17 16 16 16 16 16 16 16 16 15 15 15 15 15 15 15 15 15 15 16 16 16
19 17 18 19 19 19 20 20 20 20 19 19 19 19 19 19 18 18 18 18 18 18 18 17 17 17 17 17 16 16 16 16 16 16 16 16 15 15 15 15 15 15 15 15 15 15 15 15 16
19 18 18 19 20 20 20 20 20 19 18 19 19 19 19 19 19 19 18 18 18 18 18 18 17 17 17 17 16 16 16 16 16 16 16 15 15 15 15 15 15 15 15 15 15 15 15 15 15
18 18 19 19 20 20 19 20 19 19 19 20 20 20 19 19 19 19 19 19 18 18 18 18 17 17 17 17 16 16 16 16 16 16 15 15 15 15 15 15 15 15 15 15 15 15 15 15 15
18 18 19 19 20 20 19 19 19 19 20 20 20 20 19 19 19 19 19 19 18 18 18 18 18 17 17 17 17 16 16 16 16 15 15 15 15 15 15 15 15 15 15 15 15 15 15 15 15
18 18 19 19 20 20 19 19 19 19 19 20 20 19 19 19 19 19 19 19 19 18 18 18 18 17 17 17 16 16 16 16 16 15 15 15 15 15 15 14 14 14 14 14 15 15 15 15 15
19 19 19 18 19 19 19 18 18 19 19 19 19 19 19 19 19 19 19 19 19 18 18 18 18 17 17 17 16 16 16 16 15 15 15 15 15 14 14 14 14 14 14 14 14 14 15 15 15
18 18 18 18 19 19 19 18 18 19 19 19 19 19 19 19 19 19 19 19 19 19 18 18 18 17 17 17 16 16 16 16 15 15 15 15 14 14 14 14 14 14 14 14 14 14 15 15 15
17 17 18 18 18 18 18 17 18 18 18 18 18 19 19 19 19 19 19 19 19 19 18 18 18 18 17 17 17 16 16 16 15 15 15 15 14 14 14 14 14 14 14 14 14 14 14 15 15
17 17 18 18 18 18 17 17 17 18 18 18 18 18 19 19 19 19 19 19 19 19 18 18 18 18 17 17 17 16 16 16 15 15 15 15 15 14 14 14 14 14 14 14 14 14 14 14 14
18 18 17 18 18 17 16 16 16 17 17 17 17 18 18 19 19 19 19 19 19 18 18 18 18 18 17 17 17 16 16 16 16 15 15 15 15 15 14 14 14 14 14 14 14 14 14 14 14
18 17 17 17 18 17 16 16 16 16 16 17 17 17 18 18 19 19 19 19 19 19 18 18 18 18 17 17 17 16 16 16 15 15 15 15 15 15 14 14 14 14 14 14 14 14 14 14 14
18 17 17 17 17 17 17 17 16 16 16 16 17 17 18 18 19 19 19 19 19 18 18 18 18 17 17 17 17 16 16 16 16 15 15 15 15 15 14 14 14 14 14 14 14 13 13 13 13
18 18 18 18 17 16 17 17 17 16 16 16 16 17 17 18 18 19 19 19 18 18 18 18 18 17 17 17 16 16 16 16 15 15 15 15 15 15 14 14 14 14 14 14 14 13 13 13 13
18 18 18 18 17 16 16 16 16 16 16 15 16 16 17 18 18 18 18 18 18 18 18 18 17 17 17 17 16 16 16 15 15 15 15 15 15 15 14 14 14 14 14 14 14 13 13 13 13
18 18 17 16 16 17 17 16 16 15 16 16 15 16 17 17 18 18 18 18 18 18 18 17 17 17 17 16 16 16 15 15 15 15 15 15 15 14 14 14 14 14 14 14 13 13 13 13 13
18 17 17 17 16 16 16 16 16 16 16 16 16 16 17 17 18 18 18 18 18 18 17 17 17 17 17 16 16 16 15 15 15 15 15 15 14 14 14 14 14 14 14 13 13 13 13 13 13
17 17 17 17 16 16 16 16 16 16 16 17 17 17 17 17 17 18 18 18 17 17 17 17 17 17 16 16 16 15 15 15 15 15 14 14 14 14 14 14 14 14 13 13 13 13 13 13 13
17 17 16 16 16 16 16 16 16 15 15 15 16 16 16 17 17 17 17 17 17 17 17 17 17 16 16 16 15 15 15 15 15 14 14 14 14 14 14 14 14 13 13 13 13 13 13 13 13
18 16 15 16 16 16 17 17 16 16 15 14 14 15 16 17 17 17 17 17 17 17 17 16 16 16 16 15 15 15 15 14 14 14 14 14 14 14 14 14 13 13 13 13 13 13 13 13 13
17 17 15 14 15 16 16 17 17 16 15 15 15 16 16 17 17 17 17 17 17 16 16 16 16 16 15 15 15 15 14 14 14 14 14 13 13 13 13 13 13 13 13 13 13 13 12 13 13
19 17 16 17 16 15 15 16 17 16 16 16 15 16 17 17 17 17 17 16 16 16 16 16 16 15 15 15 15 14 14 14 14 14 13 13 13 13 13 13 13 13 12 12 12 12 12 12 12
Wind_Speed
4 3 2 3 5 6 3 2 1 2 3 3 5 6 7 5 4 4 0 3 4 4 6 8 10 11 11 12 12 12 12 12 12 11 10 10 9 9 8 7 7 7 7 6 6 6 6 5 5
1 2 3 4 5 4 2 2 2 2 4 5 6 6 7 5 4 5 2 3 5 5 6 8 10 11 11 11 11 11 11 11 11 10 10 9 9 8 7 7 7 7 6 6 6 5 5 5 5
1 2 3 4 4 3 2 1 2 3 4 3 4 5 5 3 3 3 3 6 6 6 6 8 10 10 11 11 10 10 10 10 10 9 9 9 8 7 7 7 6 6 6 6 6 6 6 6 6
3 4 4 5 4 0 1 2 3 3 4 5 5 5 4 2 3 4 7 7 6 5 6 7 9 10 10 10 9 9 9 9 9 8 8 8 7 7 6 6 6 6 6 6 6 6 6 6 7
4 4 5 4 2 2 1 1 2 3 3 4 5 5 3 4 6 8 8 7 7 4 5 6 8 9 9 9 8 8 8 8 8 8 7 7 7 6 5 5 5 5 6 6 6 6 6 7 7
4 4 5 3 2 2 2 2 3 6 5 5 5 5 3 2 6 7 7 6 5 5 4 5 7 7 7 7 7 7 7 7 7 7 7 7 7 6 6 6 6 6 6 6 6 6 7 7 8
4 4 4 3 2 2 2 2 3 5 5 3 4 5 2 2 4 6 6 5 4 4 4 4 5 6 6 6 6 6 6 6 7 7 7 7 7 7 7 7 7 7 7 7 7 7 7 8 8
4 4 4 2 3 1 1 2 3 4 5 4 4 6 4 4 5 7 6 5 4 3 3 3 4 4 4 5 5 6 6 7 7 7 7 8 8 8 8 8 8 8 8 8 8 8 8 8 8
3 5 3 3 4 2 1 4 3 3 6 4 3 4 5 8 9 7 5 3 2 2 1 1 2 3 3 4 5 6 7 8 8 8 8 8 8 8 8 9 8 8 9 9 10 9 9 8 8
4 4 3 2 4 3 2 3 3 5 5 4 6 6 8 9 8 7 5 4 2 1 1 0 1 1 3 3 5 6 6 7 7 8 8 8 8 8 8 9 9 9 9 10 10 10 9 8 8
3 4 2 1 2 3 3 3 3 7 3 4 7 8 8 8 7 6 4 3 2 2 1 1 1 1 2 2 3 4 5 6 6 7 7 7 7 8 9 9 9 10 9 9 9 9 8 7 6
3 2 3 2 2 3 3 3 4 4 2 4 7 9 8 8 7 6 5 3 2 2 1 1 1 1 2 3 3 3 3 4 5 6 6 6 5 5 6 5 7 7 7 7 7 6 7 6 6
3 2 3 4 6 5 6 5 5 4 4 7 9 8 7 7 5 3 4 3 2 2 1 1 2 2 2 2 2 3 3 3 4 5 6 5 3 3 4 4 6 6 6 5 5 5 5 5 5
3 4 4 4 5 3 7 4 4 2 4 7 7 6 5 4 4 4 4 3 2 2 2 1 2 2 2 2 2 2 2 3 4 5 6 5 4 3 3 3 4 5 6 5 4 4 3 3 3
3 5 6 5 3 2 5 5 2 1 5 6 5 4 4 3 3 4 4 4 4 3 2 2 2 2 3 2 2 2 3 4 4 4 6 5 4 4 3 2 3 5 6 6 5 4 4 3 3
4 5 4 4 3 2 5 2 1 2 6 5 3 2 3 2 2 2 3 4 4 3 3 2 2 3 3 3 3 3 4 4 4 4 5 5 5 5 4 3 3 5 6 5 3 3 4 4 4
5 4 3 2 4 3 4 2 2 2 5 4 3 2 3 2 2 1 2 4 4 4 3 3 3 3 3 3 3 4 4 4 4 4 5 5 6 6 4 3 3 5 4 3 3 3 2 3 4
3 4 3 2 2 5 4 1 3 2 5 3 2 2 2 2 1 1 2 3 4 3 3 3 3 3 3 3 3 3 4 3 4 4 5 5 5 6 4 3 4 5 3 4 4 3 3 2 3
5 5 4 1 1 4 4 2 2 2 3 2 1 2 2 2 0 2 3 3 4 3 3 3 3 2 3 2 2 2 2 2 3 4 5 6 6 6 5 3 3 4 3 3 4 3 4 3 3
6 6 4 3 3 4 4 3 2 2 1 2 3 3 3 2 2 2 3 3 3 2 2 2 2 2 2 1 1 1 1 1 1 3 5 6 6 6 4 3 3 3 3 5 4 3 2 3 3
3 5 5 5 3 4 3 4 3 1 1 1 2 3 3 4 3 2 2 2 2 2 1 2 2 2 2 2 2 3 3 3 3 4 4 5 7 6 4 3 3 3 3 3 4 3 2 2 3
2 3 6 6 5 2 2 0 3 1 1 1 1 2 3 3 3 3 3 2 1 0 1 2 2 2 2 3 3 2 2 1 2 2 3 5 6 6 5 4 3 2 2 3 3 2 1 1 2
3 5 6 5 5 3 2 2 5 0 3 5 4 4 3 3 4 4 3 3 2 1 2 3 3 3 3 3 3 3 2 1 2 2 4 5 5 6 6 5 3 3 2 3 3 3 2 1 1
7 7 7 6 5 1 2 3 5 5 7 6 5 5 5 4 4 4 3 3 3 3 3 3 4 3 3 3 3 2 2 2 2 3 4 4 4 4 6 5 4 3 3 3 3 3 2 2 2
6 6 3 4 3 4 2 3 7 6 6 7 9 8 6 5 5 4 4 3 3 3 3 3 4 3 2 3 3 2 1 1 1 2 3 3 3 3 5 4 4 3 3 3 3 3 3 3 2
5 7 7 5 4 3 1 5 6 3 3 4 6 6 6 5 5 5 5 4 3 3 3 3 3 2 2 2 2 2 2 1 1 2 2 2 2 3 4 4 4 4 4 4 3 3 3 3 3
6 4 6 6 3 1 4 5 6 1 3 5 6 7 7 6 6 5 5 4 4 3 3 3 3 2 1 1 1 2 2 2 2 2 2 3 3 3 4 4 4 5 4 4 3 3 4 4 3
5 8 6 5 4 3 4 4 5 6 8 8 8 9 8 6 6 6 5 4 3 3 2 3 3 2 1 1 1 2 1 2 2 2 3 4 4 4 5 5 5 5 5 4 4 3 4 4 4
5 4 5 5 5 5 3 7 6 9 11 13 13 11 10 9 8 7 5 4 4 3 3 3 3 2 2 2 1 2 2 2 2 3 3 4 4 5 5 5 5 5 5 5 4 4 4 4 5
6 7 8 5 4 4 3 7 4 6 8 11 11 10 9 9 8 7 6 5 4 4 3 3 3 2 1 1 2 2 2 3 3 3 4 4 4 4 4 4 5 5 5 5 4 5 5 4 5
Wind_Direction
334 56 74 52 53 53 50 8 43 64 61 57 66 76 77 59 72 113 13 113 112 100 98 99 100 99 99 98 94 92 91 89 88 86 85 83 81 80 76 71 68 66 62 58 54 50 43 39 35
46 76 53 56 76 72 24 359 66 81 132 134 82 73 70 63 67 102 111 126 111 103 97 102 103 98 96 96 93 90 88 86 86 85 83 81 79 76 71 67 63 58 55 52 46 38 29 26 23
72 48 69 65 83 126 127 40 106 89 111 105 80 62 75 84 99 126 149 132 110 100 100 107 104 99 96 95 92 89 86 84 83 82 80 76 74 71 67 63 58 52 48 45 36 28 24 19 14
73 47 54 68 80 86 143 128 114 109 70 57 93 72 60 62 133 140 133 125 113 100 100 108 106 100 97 93 90 87 84 82 79 76 71 65 59 59 55 51 48 42 36 32 23 12 8 5 2
60 74 65 61 54 16 22 95 89 88 69 62 81 83 52 14 101 121 128 126 121 109 101 107 108 101 96 92 88 85 82 78 73 68 60 52 43 39 34 27 24 26 21 15 8 359 354 352 349
56 65 83 89 43 12 10 36 89 83 89 86 79 83 54 81 123 134 128 121 120 118 101 98 103 100 95 88 82 77 73 68 61 52 45 36 31 25 17 15 10 8 4 360 356 352 350 347 344
99 92 109 120 83 40 54 48 95 107 100 92 107 95 92 148 150 130 115 107 100 94 87 72 72 71 74 72 67 61 56 50 44 41 34 25 22 17 13 7 5 2 1 1 358 352 348 346 346
109 99 93 99 112 92 27 48 70 95 101 101 103 126 161 190 134 108 94 88 86 80 74 67 62 60 50 42 43 44 41 37 34 31 29 25 22 16 12 6 3 6 10 11 8 3 359 358 356
85 80 123 164 147 136 67 76 55 56 89 70 70 128 146 127 116 109 97 82 88 101 72 71 57 44 32 23 33 33 33 34 32 27 27 27 21 17 15 12 10 8 10 11 11 8 9 12 9
86 114 176 188 155 136 105 93 102 84 73 70 74 79 104 118 128 137 145 157 162 187 232 137 85 33 18 23 31 25 30 32 31 29 30 31 28 26 24 19 18 14 13 13 13 16 19 18 10
96 137 144 62 127 117 102 73 63 109 101 148 143 137 128 133 142 152 160 161 172 182 193 149 134 57 32 26 28 31 29 28 30 32 35 39 37 32 29 25 20 16 14 13 9 14 16 14 6
91 88 122 94 95 97 107 94 77 86 139 153 145 140 137 146 159 168 168 156 131 127 156 108 116 95 51 49 44 43 34 28 28 28 36 45 39 27 20 22 13 13 8 5 7 4 3 5 2
92 89 86 85 78 91 90 83 97 69 70 102 114 122 140 150 157 152 139 132 121 128 136 118 115 108 81 68 54 59 45 38 35 34 37 48 50 27 16 15 15 9 6 2 357 358 359 3 358
109 92 76 66 70 80 94 66 78 74 89 103 114 131 145 151 153 129 127 140 144 145 126 92 94 105 103 88 74 64 60 54 46 39 37 44 51 43 27 14 8 2 360 357 356 351 351 349 349
91 82 55 35 51 71 92 52 49 109 111 114 122 134 146 162 143 148 159 156 154 140 119 115 116 93 98 94 80 74 64 58 46 36 36 39 44 41 36 19 1 353 359 5 7 0 1 358 357
65 63 58 1 27 45 103 120 337 92 122 126 132 138 144 139 145 159 157 148 141 129 120 110 101 97 89 79 71 63 57 52 41 34 31 31 35 36 35 26 0 352 2 9 2 3 359 356 354
52 98 106 17 20 64 101 136 335 97 128 132 139 148 137 104 78 148 149 145 139 138 129 101 83 86 82 70 64 59 54 45 32 31 26 20 27 29 33 23 360 360 7 5 1 11 1 347 344
142 129 112 96 18 79 92 70 8 74 130 141 144 143 138 143 211 177 132 128 127 119 110 102 85 79 81 69 58 48 41 29 24 22 14 14 16 15 21 16 6 10 11 2 1 354 354 338 331
132 117 103 65 59 89 93 73 6 49 114 123 139 157 161 185 338 81 96 102 106 94 98 103 102 89 84 70 70 60 27 358 356 0 3 6 8 9 13 7 0 7 8 353 352 354 355 351 346
112 107 101 68 62 106 96 50 3 47 172 176 175 181 179 149 71 67 82 86 93 103 117 122 121 108 97 88 105 108 98 343 327 341 357 3 360 360 5 4 349 351 355 357 2 10 359 352 11
116 152 154 140 76 51 91 13 349 340 45 93 144 172 173 166 157 137 109 92 89 86 132 144 137 118 104 97 81 57 40 19 10 0 352 347 346 345 347 348 346 348 357 343 341 353 14 346 349
171 175 142 129 105 20 81 172 289 278 310 268 209 168 179 174 155 148 133 119 128 134 91 96 106 96 84 93 89 88 83 25 317 320 325 333 349 348 345 340 341 341 341 333 328 352 333 352 332
150 107 104 105 107 66 33 120 282 272 233 236 222 197 186 175 163 159 160 163 136 101 98 95 93 76 63 75 86 88 69 353 328 337 341 342 342 347 348 344 341 330 322 319 327 336 331 282 263
121 81 64 53 67 20 241 157 266 226 214 211 206 196 183 167 151 143 137 119 97 88 90 92 93 70 58 69 70 79 66 16 5 350 344 341 337 336 345 346 342 325 315 311 312 313 313 289 267
96 101 61 22 12 258 226 188 247 242 214 193 190 188 177 163 150 143 137 128 120 113 105 99 99 75 59 66 57 52 48 45 20 345 339 342 341 332 333 344 335 325 319 314 310 315 310 299 282
160 140 153 176 208 267 276 233 254 265 216 171 161 161 157 156 156 158 158 152 146 136 119 111 109 93 65 65 43 34 37 45 15 360 348 331 317 308 320 337 335 329 332 333 325 319 311 309 298
139 160 156 130 140 211 271 280 299 133 150 154 153 158 171 169 163 160 154 151 152 148 146 142 131 109 63 54 50 29 22 27 13 356 353 339 329 330 337 344 342 339 339 336 332 330 321 322 310
143 144 112 124 152 231 283 268 244 219 205 189 181 183 183 174 167 163 160 159 155 151 142 124 129 136 128 72 66 58 18 8 11 16 0 348 342 343 346 348 346 345 345 344 343 333 326 335 323
127 121 116 120 150 158 246 269 227 211 199 192 193 188 182 180 178 173 168 165 155 137 125 118 114 110 92 73 61 44 19 16 24 16 357 350 348 352 352 347 348 346 346 346 349 340 337 336 330
168 168 151 155 201 177 187 266 281 221 202 190 188 184 181 179 176 170 163 156 149 144 137 126 124 122 126 103 78 53 31 33 28 6 350 350 351 349 348 349 353 349 347 344 342 338 340 335 330
Height
1503 1503 1503 1504 1506 1516 1520 1516 1512 1512 1513 1514 1513 1514 1517 1520 1524 1530 1527 1526 1527 1527 1528 1528 1529 1530 1530 1531 1531 1532 1532 1533 1533 1534 1534 1534 1534 1534 1535 1535 1535 1535 1534 1534 1534 1534 1534 1534 1533
1503 1503 1505 1505 1514 1526 1523 1515 1513 1512 1513 1514 1515 1517 1518 1522 1523 1525 1526 1527 1528 1529 1529 1530 1531 1531 1532 1532 1533 1533 1533 1534 1534 1535 1535 1535 1535 1535 1535 1535 1535 1535 1535 1534 1534 1534 1534 1534 1534
1504 1504 1506 1508 1518 1525 1521 1514 1513 1513 1514 1515 1517 1519 1521 1524 1525 1527 1528 1529 1530 1530 1531 1532 1532 1533 1533 1534 1534 1534 1535 1535 1535 1536 1536 1536 1536 1536 1536 1536 1535 1535 1535 1534 1534 1534 1534 1534 1533
1505 1506 1508 1514 1520 1518 1515 1514 1513 1514 1515 1516 1518 1521 1524 1527 1527 1529 1529 1530 1532 1532 1533 1534 1534 1535 1535 1535 1536 1536 1536 1536 1536 1537 1537 1537 1537 1536 1536 1536 1535 1535 1535 1534 1534 1534 1533 1533 1533
1505 1506 1513 1520 1519 1516 1515 1514 1514 1515 1517 1518 1519 1523 1527 1528 1529 1530 1531 1532 1534 1535 1535 1536 1536 1536 1537 1537 1537 1538 1538 1538 1538 1538 1538 1537 1537 1537 1537 1536 1536 1535 1535 1534 1534 1533 1533 1533 1533
1506 1508 1520 1526 1521 1517 1516 1515 1515 1517 1519 1521 1522 1525 1529 1530 1531 1532 1533 1535 1536 1537 1537 1538 1538 1539 1539 1539 1539 1540 1540 1539 1539 1539 1539 1539 1538 1538 1537 1537 1536 1535 1535 1534 1534 1533 1533 1532 1532
1508 1513 1520 1522 1523 1520 1517 1516 1517 1518 1520 1523 1524 1527 1530 1532 1533 1534 1536 1537 1538 1539 1540 1540 1540 1541 1541 1541 1541 1542 1541 1541 1541 1540 1540 1540 1539 1539 1538 1537 1537 1536 1535 1534 1534 1533 1533 1532 1532
1508 1513 1520 1522 1523 1521 1518 1518 1519 1520 1523 1525 1526 1527 1531 1533 1535 1536 1537 1539 1540 1541 1542 1542 1543 1543 1543 1543 1543 1543 1543 1543 1542 1542 1541 1541 1540 1539 1539 1538 1537 1536 1535 1535 1534 1533 1533 1532 1532
1509 1518 1524 1522 1521 1520 1518 1519 1521 1522 1524 1526 1527 1529 1531 1534 1536 1537 1539 1541 1542 1543 1544 1544 1544 1545 1545 1545 1545 1545 1545 1544 1544 1543 1542 1541 1541 1540 1539 1539 1538 1537 1536 1535 1534 1533 1532 1532 1531
1510 1520 1519 1517 1517 1518 1519 1520 1522 1524 1526 1528 1529 1531 1533 1535 1537 1539 1540 1542 1543 1544 1545 1546 1546 1546 1547 1547 1547 1546 1546 1545 1545 1544 1543 1542 1542 1541 1540 1539 1538 1537 1536 1535 1534 1533 1532 1532 1531
1510 1516 1515 1515 1516 1518 1520 1522 1524 1525 1529 1529 1530 1532 1534 1536 1538 1540 1542 1544 1545 1546 1547 1547 1547 1548 1548 1548 1548 1548 1547 1547 1546 1545 1544 1543 1542 1541 1540 1539 1538 1537 1536 1535 1534 1533 1532 1532 1531
1512 1514 1514 1516 1517 1519 1521 1523 1526 1527 1530 1531 1532 1533 1535 1538 1540 1542 1544 1545 1547 1547 1548 1548 1549 1549 1549 1549 1549 1549 1548 1548 1547 1546 1545 1544 1543 1542 1541 1539 1538 1537 1536 1535 1534 1533 1532 1531 1531
1514 1516 1516 1518 1518 1520 1522 1525 1527 1530 1531 1533 1534 1536 1538 1540 1542 1544 1545 1547 1548 1549 1549 1550 1550 1550 1550 1550 1550 1550 1549 1549 1548 1547 1546 1544 1543 1542 1541 1540 1538 1537 1536 1534 1533 1532 1532 1531 1530
1515 1516 1518 1520 1521 1523 1525 1528 1529 1533 1533 1534 1536 1538 1539 1541 1543 1545 1546 1548 1549 1550 1551 1551 1551 1551 1551 1551 1551 1551 1550 1550 1549 1547 1546 1545 1543 1542 1541 1540 1538 1537 1535 1534 1533 1532 1531 1530 1529
1516 1518 1521 1522 1523 1526 1527 1532 1533 1534 1534 1536 1538 1539 1541 1542 1544 1546 1548 1549 1550 1551 1552 1552 1552 1552 1552 1552 1552 1552 1551 1551 1550 1548 1547 1545 1544 1543 1541 1540 1538 1537 1535 1534 1533 1531 1530 1529 1528
1519 1524 1531 1527 1525 1527 1531 1540 1535 1535 1535 1537 1539 1540 1541 1543 1545 1547 1548 1550 1551 1552 1552 1553 1553 1553 1553 1553 1553 1552 1552 1551 1550 1549 1548 1546 1544 1543 1541 1540 1538 1537 1535 1534 1532 1531 1529 1529 1527
1527 1534 1535 1532 1528 1528 1532 1539 1537 1536 1537 1538 1540 1541 1542 1544 1545 1547 1549 1550 1552 1553 1553 1554 1554 1554 1554 1554 1553 1553 1553 1552 1551 1550 1548 1547 1545 1544 1542 1540 1538 1537 1535 1533 1532 1530 1529 1528 1527
1534 1535 1536 1536 1532 1532 1536 1539 1537 1537 1538 1539 1540 1541 1543 1544 1546 1547 1549 1551 1552 1553 1554 1554 1555 1555 1554 1554 1554 1554 1553 1552 1551 1550 1549 1548 1546 1544 1542 1541 1539 1537 1535 1534 1532 1530 1529 1527 1526
1527 1532 1536 1536 1532 1535 1540 1541 1539 1538 1538 1540 1541 1542 1543 1544 1546 1548 1549 1551 1552 1554 1554 1555 1555 1555 1555 1555 1554 1554 1553 1553 1552 1551 1549 1548 1546 1545 1543 1541 1540 1538 1536 1534 1532 1530 1529 1527 1526
1527 1534 1537 1537 1534 1537 1541 1543 1540 1540 1539 1540 1541 1542 1543 1545 1546 1548 1549 1551 1552 1553 1554 1555 1555 1555 1555 1555 1554 1554 1554 1553 1552 1551 1550 1548 1547 1545 1543 1542 1540 1538 1536 1534 1533 1531 1529 1528 1526
1529 1533 1536 1538 1537 1538 1541 1545 1543 1541 1540 1540 1540 1541 1543 1544 1545 1547 1549 1550 1552 1553 1554 1554 1555 1555 1555 1555 1555 1554 1554 1553 1552 1551 1550 1548 1547 1545 1544 1542 1540 1538 1536 1535 1533 1531 1530 1528 1527
1532 1527 1530 1535 1543 1550 1546 1556 1545 1542 1541 1540 1540 1540 1542 1543 1545 1546 1548 1550 1551 1552 1554 1554 1555 1555 1555 1555 1554 1554 1553 1552 1551 1550 1549 1548 1547 1545 1543 1542 1540 1538 1537 1535 1533 1532 1530 1529 1527
1528 1526 1530 1536 1543 1551 1550 1556 1551 1543 1543 1540 1539 1539 1540 1542 1544 1545 1547 1549 1551 1552 1553 1554 1554 1554 1554 1554 1554 1553 1553 1552 1551 1550 1549 1547 1546 1545 1543 1542 1540 1538 1537 1535 1533 1532 1530 1529 1528
1525 1530 1535 1541 1547 1558 1552 1556 1552 1545 1538 1536 1536 1538 1539 1541 1543 1545 1547 1549 1550 1552 1553 1553 1554 1554 1554 1554 1553 1553 1552 1551 1550 1549 1548 1547 1545 1544 1542 1541 1539 1538 1536 1535 1533 1531 1530 1529 1527
1527 1540 1555 1559 1564 1562 1550 1552 1548 1533 1531 1531 1533 1535 1537 1540 1542 1544 1546 1548 1549 1551 1552 1553 1553 1553 1553 1553 1553 1552 1551 1551 1550 1548 1547 1546 1544 1543 1541 1540 1538 1537 1535 1534 1532 1531 1529 1528 1526
1530 1536 1554 1565 1566 1561 1552 1553 1539 1529 1528 1529 1531 1534 1536 1539 1541 1543 1545 1547 1549 1550 1551 1552 1552 1552 1552 1552 1552 1551 1551 1550 1549 1548 1546 1545 1543 1542 1540 1539 1537 1536 1534 1533 1531 1529 1528 1526 1525
1531 1536 1537 1551 1556 1561 1556 1546 1534 1528 1528 1529 1531 1533 1535 1537 1540 1542 1544 1546 1548 1549 1550 1551 1551 1551 1552 1551 1551 1551 1550 1549 1548 1547 1546 1544 1543 1541 1539 1538 1536 1534 1533 1531 1529 1528 1526 1524 1523
1524 1530 1542 1550 1561 1564 1554 1548 1541 1530 1529 1528 1529 1530 1533 1536 1538 1540 1543 1545 1546 1548 1549 1550 1550 1550 1551 1550 1550 1549 1549 1548 1547 1546 1545 1543 1541 1540 1538 1536 1534 1533 1531 1529 1528 1526 1524 1522 1521
1527 1532 1538 1547 1550 1560 1561 1548 1522 1520 1520 1522 1524 1527 1530 1533 1536 1539 1541 1543 1545 1546 1548 1548 1549 1549 1549 1549 1549 1548 1548 1547 1546 1545 1543 1542 1540 1538 1536 1534 1533 1531 1529 1527 1525 1523 1522 1520 1518
1517 1524 1532 1543 1548 1551 1555 1544 1514 1514 1515 1517 1521 1524 1528 1531 1534 1537 1540 1542 1544 1545 1546 1547 1547 1548 1548 1548 1548 1547 1546 1545 1544 1543 1542 1540 1539 1537 1535 1533 1531 1529 1527 1525 1523 1521 1519 1517 1516